• în Republica Moldova
  • Lista ţărilor
  • Pe 7 zile
  • Temperatura apei
  • Hartă satelitară
  • Meteo pe hartă
  • Widget-uri
  • user-avatar
    Intrare

    Meteo pe oră la Kitzbuhel

    Astăzi, 24 Ianuarie, Miercuri

    Timp Temperatura Precipitaţii Vânt Presiune Umiditate
    00:00 -3°C° 0 mm 2 m/s 682 mmHg 72%
    01:00 -3°C° 0 mm 2 m/s 682 mmHg 70%
    02:00 -3°C° 0 mm 2 m/s 682 mmHg 68%
    03:00 -3°C° 0 mm 2 m/s 682 mmHg 67%
    04:00 -3°C° 0 mm 2 m/s 682 mmHg 65%
    05:00 -3°C° 0 mm 2 m/s 682 mmHg 65%
    06:00 -2°C° 0 mm 2 m/s 682 mmHg 64%
    07:00 -2°C° 0 mm 2 m/s 682 mmHg 63%
    08:00 -1°C° 0 mm 2 m/s 682 mmHg 67%
    09:00 +3°C° 0 mm 1 m/s 683 mmHg 70%
    10:00 +4°C° 0 mm 1 m/s 683 mmHg 73%
    11:00 +5°C° 0 mm 1 m/s 682 mmHg 78%
    12:00 +6°C° 0 mm 1 m/s 682 mmHg 84%
    13:00 +7°C° 0 mm 1 m/s 682 mmHg 89%
    14:00 +5°C° 0 mm 2 m/s 681 mmHg 88%
    15:00 +5°C° 0 mm 2 m/s 681 mmHg 86%
    16:00 +4°C° 0 mm 2 m/s 681 mmHg 84%
    17:00 +3°C° 0 mm 2 m/s 681 mmHg 80%
    18:00 +2°C° 0 mm 2 m/s 680 mmHg 76%
    19:00 +1°C° 0 mm 2 m/s 680 mmHg 72%
    20:00 +1°C° 0 mm 2 m/s 680 mmHg 71%
    21:00 -1°C° 0 mm 2 m/s 680 mmHg 70%
    22:00 -1°C° 0 mm 2 m/s 680 mmHg 68%
    23:00 -1°C° 0 mm 2 m/s 680 mmHg 68%

    Mâine, 25 Ianuarie, Joi

    Timp Temperatura Precipitaţii Vânt Presiune Umiditate
    00:00 -1°C° 0 mm 2 m/s 680 mmHg 67%
    01:00 -1°C° 0 mm 2 m/s 680 mmHg 67%
    02:00 -1°C° 0 mm 2 m/s 679 mmHg 67%
    03:00 -1°C° 0 mm 2 m/s 679 mmHg 66%
    04:00 -1°C° 0 mm 2 m/s 679 mmHg 66%
    05:00 -1°C° 0 mm 2 m/s 679 mmHg 66%
    06:00 -1°C° 0 mm 2 m/s 679 mmHg 66%
    07:00 -1°C° 0 mm 2 m/s 678 mmHg 67%
    08:00 +1°C° 0 mm 2 m/s 678 mmHg 70%
    09:00 +2°C° 0 mm 2 m/s 678 mmHg 73%
    10:00 +3°C° 0 mm 2 m/s 678 mmHg 76%
    11:00 +4°C° 0 mm 2 m/s 677 mmHg 80%
    12:00 +5°C° 0 mm 2 m/s 677 mmHg 84%
    13:00 +5°C° 0 mm 2 m/s 676 mmHg 88%
    14:00 +5°C° 0 mm 2 m/s 676 mmHg 89%
    15:00 +4°C° 0 mm 2 m/s 676 mmHg 90%
    16:00 +4°C° 0 mm 2 m/s 675 mmHg 91%
    17:00 +3°C° 0 mm 2 m/s 675 mmHg 90%
    18:00 +2°C° 0 mm 2 m/s 675 mmHg 89%
    19:00 +1°C° 0 mm 2 m/s 675 mmHg 88%
    20:00 +1°C° 0 mm 2 m/s 675 mmHg 88%
    21:00 +1°C° 0 mm 2 m/s 675 mmHg 88%
    22:00 +1°C° 0 mm 2 m/s 674 mmHg 88%
    23:00 +1°C° 0 mm 2 m/s 674 mmHg 87%

    Poimâine, 26 Ianuarie, Vineri

    Timp Temperatura Precipitaţii Vânt Presiune Umiditate
    00:00 +1°C° 0 mm 2 m/s 674 mmHg 87%
    01:00 +1°C° 0 mm 2 m/s 674 mmHg 87%
    02:00 +1°C° 0 mm 2 m/s 673 mmHg 87%
    03:00 +1°C° 0 mm 2 m/s 673 mmHg 87%
    04:00 +1°C° 0 mm 2 m/s 673 mmHg 87%
    05:00 +1°C° 0 mm 2 m/s 673 mmHg 87%
    06:00 +1°C° 0 mm 2 m/s 673 mmHg 87%
    07:00 +1°C° 0 mm 2 m/s 673 mmHg 87%
    08:00 +2°C° 0 mm 2 m/s 673 mmHg 88%
    09:00 +3°C° 0 mm 2 m/s 673 mmHg 90%
    10:00 +3°C° 0 mm 2 m/s 673 mmHg 91%
    11:00 +4°C° 0 mm 2 m/s 673 mmHg 92%
    12:00 +4°C° 0 mm 2 m/s 674 mmHg 93%
    13:00 +4°C° 0 mm 2 m/s 674 mmHg 94%
    14:00 +4°C° 0 mm 2 m/s 674 mmHg 94%
    15:00 +3°C° 0 mm 2 m/s 674 mmHg 95%
    16:00 +3°C° 0 mm 2 m/s 674 mmHg 96%
    17:00 +3°C° 0,2 mm 2 m/s 674 mmHg 96%
    18:00 +2°C° 0,2 mm 2 m/s 675 mmHg 97%
    19:00 +3°C° 0,2 mm 1 m/s 675 mmHg 97%
    20:00 +2°C° 0,4 mm 1 m/s 675 mmHg 97%
    21:00 +2°C° 0,4 mm 1 m/s 675 mmHg 97%
    22:00 +2°C° 0,4 mm 1 m/s 676 mmHg 97%
    23:00 +2°C° 1 mm 1 m/s 676 mmHg 97%

    27 Ianuarie, Sâmbătă

    Timp Temperatura Precipitaţii Vânt Presiune Umiditate
    00:00 +2°C° 1 mm 1 m/s 676 mmHg 97%
    01:00 +2°C° 1 mm 1 m/s 676 mmHg 97%
    02:00 +2°C° 1,2 mm 1 m/s 677 mmHg 97%
    03:00 +2°C° 1,2 mm 1 m/s 677 mmHg 98%
    04:00 +2°C° 1,2 mm 1 m/s 677 mmHg 98%
    05:00 +2°C° 0,7 mm 1 m/s 677 mmHg 98%
    06:00 +2°C° 0,7 mm 1 m/s 677 mmHg 97%
    07:00 +1°C° 0,7 mm 1 m/s 678 mmHg 97%
    08:00 +2°C° 0,5 mm 1 m/s 678 mmHg 97%
    09:00 +2°C° 0,5 mm 1 m/s 679 mmHg 97%
    10:00 +2°C° 0,5 mm 1 m/s 680 mmHg 96%
    11:00 +3°C° 0,2 mm 1 m/s 680 mmHg 96%
    12:00 +3°C° 0,2 mm 1 m/s 680 mmHg 95%
    13:00 +4°C° 0,2 mm 1 m/s 681 mmHg 95%
    14:00 +4°C° 0,1 mm 1 m/s 681 mmHg 95%
    15:00 +4°C° 0,1 mm 1 m/s 681 mmHg 95%
    16:00 +4°C° 0,1 mm 1 m/s 682 mmHg 96%
    17:00 +3°C° 0 mm 1 m/s 682 mmHg 96%
    18:00 +2°C° 0 mm 1 m/s 683 mmHg 96%
    19:00 +2°C° 0 mm 1 m/s 683 mmHg 96%
    20:00 +1°C° 0 mm 1 m/s 684 mmHg 96%
    21:00 +1°C° 0 mm 1 m/s 684 mmHg 95%
    22:00 0°C° 0 mm 1 m/s 684 mmHg 95%
    23:00 0°C° 0 mm 1 m/s 685 mmHg 93%

    28 Ianuarie, Duminică

    Timp Temperatura Precipitaţii Vânt Presiune Umiditate
    00:00 0°C° 0 mm 1 m/s 685 mmHg 91%
    01:00 -1°C° 0 mm 1 m/s 685 mmHg 89%
    02:00 -1°C° 0 mm 1 m/s 685 mmHg 88%
    03:00 -1°C° 0 mm 1 m/s 685 mmHg 88%
    04:00 -1°C° 0 mm 1 m/s 685 mmHg 87%
    05:00 -1°C° 0 mm 1 m/s 685 mmHg 86%
    06:00 -1°C° 0 mm 1 m/s 686 mmHg 85%
    07:00 -1°C° 0 mm 1 m/s 686 mmHg 85%
    08:00 0°C° 0 mm 1 m/s 687 mmHg 84%
    09:00 +2°C° 0 mm 1 m/s 687 mmHg 84%
    10:00 +2°C° 0 mm 0 m/s 688 mmHg 84%
    11:00 +3°C° 0 mm 0 m/s 688 mmHg 87%
    12:00 +4°C° 0 mm 0 m/s 688 mmHg 90%
    13:00 +4°C° 0 mm 0 m/s 688 mmHg 93%
    14:00 +4°C° 0 mm 0 m/s 688 mmHg 93%
    15:00 +4°C° 0 mm 0 m/s 687 mmHg 94%
    16:00 +3°C° 0 mm 0 m/s 687 mmHg 94%
    17:00 +2°C° 0 mm 0 m/s 687 mmHg 93%
    18:00 +1°C° 0 mm 0 m/s 687 mmHg 91%
    19:00 +1°C° 0 mm 1 m/s 688 mmHg 89%
    20:00 +1°C° 0 mm 1 m/s 688 mmHg 86%
    21:00 0°C° 0 mm 1 m/s 688 mmHg 83%
    22:00 0°C° 0 mm 1 m/s 688 mmHg 80%
    23:00 0°C° 0 mm 1 m/s 688 mmHg 79%

    29 Ianuarie, Luni

    Timp Temperatura Precipitaţii Vânt Presiune Umiditate
    00:00 0°C° 0 mm 1 m/s 688 mmHg 77%
    01:00 0°C° 0 mm 1 m/s 688 mmHg 75%
    02:00 0°C° 0 mm 1 m/s 687 mmHg 74%
    03:00 0°C° 0 mm 1 m/s 687 mmHg 73%
    04:00 0°C° 0 mm 1 m/s 687 mmHg 72%
    05:00 0°C° 0 mm 1 m/s 687 mmHg 71%
    06:00 0°C° 0 mm 1 m/s 687 mmHg 71%
    07:00 0°C° 0 mm 1 m/s 687 mmHg 70%
    08:00 +1°C° 0 mm 1 m/s 687 mmHg 72%
    09:00 +2°C° 0 mm 1 m/s 687 mmHg 73%
    10:00 +4°C° 0 mm 1 m/s 688 mmHg 75%
    11:00 +5°C° 0 mm 1 m/s 687 mmHg 79%
    12:00 +5°C° 0 mm 1 m/s 687 mmHg 83%
    13:00 +5°C° 0 mm 0 m/s 687 mmHg 87%
    14:00 +5°C° 0 mm 0 m/s 686 mmHg 87%
    15:00 +4°C° 0 mm 0 m/s 686 mmHg 87%
    16:00 +4°C° 0 mm 0 m/s 686 mmHg 87%
    17:00 +3°C° 0 mm 1 m/s 686 mmHg 85%
    18:00 +2°C° 0 mm 1 m/s 686 mmHg 83%
    19:00 +1°C° 0 mm 1 m/s 685 mmHg 82%
    20:00 0°C° 0 mm 1 m/s 685 mmHg 80%
    21:00 0°C° 0 mm 1 m/s 685 mmHg 78%
    22:00 0°C° 0 mm 1 m/s 685 mmHg 76%
    23:00 0°C° 0 mm 1 m/s 685 mmHg 74%
    Arată mai mult